TimePDT,TemperatureF,Dew PointF,Humidity,Sea Level PressureIn,VisibilityMPH,Wind Direction,Wind SpeedMPH,Gust SpeedMPH,PrecipitationIn,Events,Conditions,WindDirDegrees,DateUTC
12:53 AM,53.1,32.0,45,30.01,10.0,West,5.8,-,N/A,,Clear,260,2013-08-04 07:53:00
1:53 AM,52.0,30.9,45,30.01,10.0,West,6.9,-,N/A,,Clear,260,2013-08-04 08:53:00
2:53 AM,48.0,30.9,52,30.02,10.0,West,6.9,-,N/A,,Clear,280,2013-08-04 09:53:00
3:53 AM,45.0,30.9,58,30.02,10.0,Calm,Calm,-,N/A,,Clear,0,2013-08-04 10:53:00
4:53 AM,50.0,34.0,54,30.02,10.0,West,9.2,-,N/A,,Clear,270,2013-08-04 11:53:00
5:53 AM,50.0,35.1,57,30.03,10.0,West,9.2,-,N/A,,Clear,270,2013-08-04 12:53:00
6:53 AM,55.0,37.9,53,30.03,10.0,West,4.6,-,N/A,,Clear,260,2013-08-04 13:53:00
7:53 AM,64.0,41.0,43,30.02,10.0,West,4.6,-,N/A,,Clear,260,2013-08-04 14:53:00
8:53 AM,70.0,39.9,33,30.04,10.0,SSW,3.5,-,N/A,,Clear,200,2013-08-04 15:53:00
9:53 AM,73.9,39.0,28,30.03,10.0,Calm,Calm,-,N/A,,Clear,0,2013-08-04 16:53:00
10:53 AM,79.0,39.0,24,30.01,10.0,SSE,5.8,-,N/A,,Clear,150,2013-08-04 17:53:00
11:53 AM,84.0,34.0,17,29.99,10.0,SE,9.2,-,N/A,,Clear,140,2013-08-04 18:53:00
12:53 PM,86.0,28.9,13,29.98,10.0,NNE,5.8,-,N/A,,Clear,20,2013-08-04 19:53:00
1:53 PM,88.0,32.0,14,29.96,10.0,Variable,3.5,-,N/A,,Clear,0,2013-08-04 20:53:00
2:53 PM,86.0,30.0,13,29.95,10.0,ESE,3.5,-,N/A,,Clear,120,2013-08-04 21:53:00
3:53 PM,89.1,28.9,12,29.93,10.0,Variable,5.8,-,N/A,,Clear,0,2013-08-04 22:53:00
4:53 PM,90.0,28.9,11,29.90,10.0,Variable,4.6,-,N/A,,Clear,0,2013-08-04 23:53:00
5:53 PM,89.1,28.9,12,29.88,10.0,West,4.6,-,N/A,,Clear,280,2013-08-05 00:53:00
6:53 PM,82.9,30.0,15,29.87,10.0,West,6.9,-,N/A,,Clear,280,2013-08-05 01:53:00
7:53 PM,78.1,36.0,22,29.87,10.0,WSW,3.5,-,N/A,,Clear,250,2013-08-05 02:53:00
8:53 PM,66.0,33.1,29,29.89,10.0,Calm,Calm,-,N/A,,Clear,0,2013-08-05 03:53:00
9:53 PM,66.9,28.9,24,29.89,10.0,NW,6.9,-,N/A,,Clear,310,2013-08-05 04:53:00
10:53 PM,64.0,34.0,33,29.90,10.0,West,9.2,-,N/A,,Clear,270,2013-08-05 05:53:00
11:53 PM,59.0,34.0,39,29.91,10.0,West,9.2,-,N/A,,Clear,270,2013-08-05 06:53:00